Voltar ao catálogo

SERVIS 2

AtivoCiênciaSSO
NORAD 36588·PAYLOAD·🇯🇵 Japan

Lançado Jun 2, 2010 de Plesetsk Cosmodrome

Loading…

Próximas Passagens (próximas 24 horas)

TLE

AtualizadoSource: Space-Track

Época: Sep 14, 2026, 10:58 UTC

1 36588U 10023A   26257.45761956 -.00000039  00000-0  15084-4 0  9996
2 36588 100.4287  83.8702 0017941  71.8517 316.0161 13.16058124782515

Acompanhe SERVIS 2 em tempo real com AllMySat

Download on the App Store